SV7RNH Weather Reports


time (UTC)temp
C
wind
direction
speed
KPH
gust
KPH
rain 1hr
cm
rain 24hr
cm
rain mn
cm
humidity
%
barometer
mb
20260507113003 21 0 0.0 3.2 0.00 0.00 0.00 55 1020.3
20260507112504 21 225 1.6 3.2 0.00 0.00 0.00 54 1020.3
20260507112003 21 0 0.0 3.2 0.00 0.00 0.00 54 1020.3
20260507111503 21 0 0.0 3.2 0.00 0.00 0.00 53 1020.4
20260507111003 21 0 0.0 1.6 0.00 0.00 0.00 53 1020.5
20260507110503 21 0 0.0 1.6 0.00 0.00 0.00 52 1020.4
20260507110003 21 0 0.0 3.2 0.00 0.00 0.00 52 1020.3
20260507105503 21 0 0.0 3.2 0.00 0.00 0.00 52 1020.4
20260507105003 21 0 0.0 3.2 0.00 0.00 0.00 52 1020.2
20260507104503 21 0 0.0 3.2 0.00 0.00 0.00 51 1020.3
20260507104004 21 0 0.0 3.2 0.00 0.00 0.00 51 1020.3
20260507103503 21 0 0.0 4.8 0.00 0.00 0.00 50 1020.2
20260507103003 22 0 0.0 4.8 0.00 0.00 0.00 50 1020.3
20260507102503 22 0 0.0 3.2 0.00 0.00 0.00 50 1020.3
20260507102004 22 0 0.0 3.2 0.00 0.00 0.00 50 1020.3
20260507101503 22 0 0.0 4.8 0.00 0.00 0.00 49 1020.2
20260507101003 22 225 1.6 6.4 0.00 0.00 0.00 49 1020.2
20260507100503 22 0 0.0 6.4 0.00 0.00 0.00 49 1020.2
20260507100004 22 225 3.2 6.4 0.00 0.00 0.00 48 1020.1
20260507095503 22 0 0.0 6.4 0.00 0.00 0.00 49 1020.1
20260507095003 22 0 0.0 6.4 0.00 0.00 0.00 49 1020.0
20260507094504 22 234 1.6 6.4 0.00 0.00 0.00 49 1020.1
20260507094004 22 235 1.6 6.4 0.00 0.00 0.00 49 1020.0
20260507093504 22 230 3.2 6.4 0.00 0.00 0.00 48 1019.9
20260507093003 22 0 0.0 6.4 0.00 0.00 0.00 47 1019.8
20260507092503 22 0 0.0 3.2 0.00 0.00 0.00 46 1019.7
20260507092003 22 0 0.0 3.2 0.00 0.00 0.00 46 1019.5
20260507091504 22 0 0.0 3.2 0.00 0.00 0.00 47 1019.3
20260507091003 22 0 0.0 3.2 0.00 0.00 0.00 48 1019.3
20260507090503 22 0 0.0 3.2 0.00 0.00 0.00 49 1019.3
20260507090003 22 0 0.0 4.8 0.00 0.00 0.00 49 1019.4
20260507085504 22 0 0.0 4.8 0.00 0.00 0.00 50 1019.3
20260507085003 21 0 0.0 4.8 0.00 0.00 0.00 51 1019.2
20260507084503 21 0 0.0 4.8 0.00 0.00 0.00 51 1019.3
20260507084003 21 0 0.0 4.8 0.00 0.00 0.00 51 1019.3
20260507083504 21 0 0.0 4.8 0.00 0.00 0.00 51 1019.1
20260507083004 21 0 0.0 3.2 0.00 0.00 0.00 52 1019.2
20260507082503 21 0 0.0 4.8 0.00 0.00 0.00 52 1019.1
20260507082004 21 0 0.0 6.4 0.00 0.00 0.00 52 1019.0
20260507081503 21 240 1.6 6.4 0.00 0.00 0.00 52 1018.8
20260507081004 21 228 3.2 6.4 0.00 0.00 0.00 52 1018.8
20260507080503 21 232 3.2 6.4 0.00 0.00 0.00 51 1018.9
20260507080003 21 238 3.2 6.4 0.00 0.00 0.00 51 1018.9
20260507075504 22 224 3.2 6.4 0.00 0.00 0.00 49 1018.7
20260507075004 22 0 0.0 4.8 0.00 0.00 0.00 49 1018.6
20260507074503 22 0 0.0 4.8 0.00 0.00 0.00 49 1018.5
20260507074003 22 0 0.0 6.4 0.00 0.00 0.00 50 1018.5
20260507073503 21 192 1.6 6.4 0.00 0.00 0.00 50 1018.4
20260507073003 22 350 3.2 6.4 0.00 0.00 0.00 48 1018.2
20260507072503 22 1 1.6 4.8 0.00 0.00 0.00 48 1018.2
20260507072004 22 1 1.6 4.8 0.00 0.00 0.00 48 1018.2
20260507071504 22 0 0.0 4.8 0.00 0.00 0.00 50 1018.4
20260507071003 22 0 0.0 6.4 0.00 0.00 0.00 50 1018.4
20260507070504 22 0 0.0 6.4 0.00 0.00 0.00 50 1018.5
20260507070007 22 357 3.2 6.4 0.00 0.00 0.00 50 1018.4
20260507065503 22 291 3.2 6.4 0.00 0.00 0.00 51 1018.4
20260507065003 22 225 3.2 6.4 0.00 0.00 0.00 51 1018.4
20260507064504 21 225 1.6 6.4 0.00 0.00 0.00 50 1018.4
20260507064004 22 0 0.0 6.4 0.00 0.00 0.00 50 1018.6
20260507063503 22 225 1.6 6.4 0.00 0.00 0.00 51 1018.5
20260507063003 22 225 1.6 4.8 0.00 0.00 0.00 52 1018.6
20260507062504 21 0 0.0 4.8 0.00 0.00 0.00 52 1018.7
20260507062003 21 0 0.0 6.4 0.00 0.00 0.00 52 1018.5
20260507061503 21 225 3.2 6.4 0.00 0.00 0.00 51 1018.4
20260507061003 21 225 3.2 6.4 0.00 0.00 0.00 50 1018.4
20260507060504 22 225 1.6 3.2 0.00 0.00 0.00 49 1018.2
20260507060004 22 225 1.6 4.8 0.00 0.00 0.00 49 1018.2
20260507055503 21 225 1.6 4.8 0.00 0.00 0.00 49 1018.1
20260507055004 21 0 0.0 6.4 0.00 0.00 0.00 49 1018.2
20260507054504 21 225 3.2 6.4 0.00 0.00 0.00 48 1018.0
20260507054003 21 225 3.2 4.8 0.00 0.00 0.00 49 1018.0
20260507053503 20 225 1.6 4.8 0.00 0.00 0.00 51 1018.0
20260507053003 20 0 0.0 4.8 0.00 0.00 0.00 51 1018.0
20260507052504 20 0 0.0 3.2 0.00 0.00 0.00 51 1018.0
20260507052003 20 0 0.0 3.2 0.00 0.00 0.00 52 1017.9
20260507051503 20 0 0.0 3.2 0.00 0.00 0.00 52 1017.8
20260507051004 20 0 0.0 3.2 0.00 0.00 0.00 53 1017.7
20260507050504 19 225 1.6 4.8 0.00 0.00 0.00 54 1018.0
20260507050003 19 0 0.0 4.8 0.00 0.00 0.00 55 1017.9
20260507045503 18 225 1.6 4.8 0.00 0.00 0.00 56 1017.9
20260507045004 18 0 0.0 4.8 0.00 0.00 0.00 57 1017.9
20260507044503 18 0 0.0 4.8 0.00 0.00 0.00 58 1017.9
20260507044003 18 0 0.0 4.8 0.00 0.00 0.00 59 1017.9
20260507043503 17 0 0.0 3.2 0.00 0.00 0.00 60 1017.9
20260507043004 17 0 0.0 4.8 0.00 0.00 0.00 62 1018.0
20260507042503 16 0 0.0 4.8 0.00 0.00 0.00 62 1017.9
20260507042003 16 0 0.0 3.2 0.00 0.00 0.00 62 1017.8
20260507041503 16 0 0.0 3.2 0.00 0.00 0.00 62 1017.8
20260507041003 16 0 0.0 3.2 0.00 0.00 0.00 63 1017.8
20260507040504 16 0 0.0 1.6 0.00 0.00 0.00 63 1017.7
20260507040004 16 0 0.0 1.6 0.00 0.00 0.00 64 1017.7
20260507035503 16 0 0.0 0.0 0.00 0.00 0.00 64 1017.7
20260507035003 16 0 0.0 1.6 0.00 0.00 0.00 64 1017.6
20260507034503 16 0 0.0 3.2 0.00 0.00 0.00 64 1017.6
20260507034004 16 0 0.0 3.2 0.00 0.00 0.00 64 1017.4
20260507033503 15 0 0.0 6.4 0.00 0.00 0.00 64 1017.4
20260507033003 15 0 0.0 6.4 0.00 0.00 0.00 64 1017.3
20260507032503 15 222 3.2 6.4 0.00 0.00 0.00 64 1017.2
20260507032004 15 0 0.0 6.4 0.00 0.00 0.00 64 1017.3
20260507031504 16 225 1.6 6.4 0.00 0.00 0.00 64 1017.2
20260507031003 16 0 0.0 6.4 0.00 0.00 0.00 64 1017.3
20260507030503 16 0 0.0 3.2 0.00 0.00 0.00 64 1017.3
20260507030004 16 0 0.0 3.2 0.00 0.00 0.00 64 1017.2
20260507025503 16 0 0.0 3.2 0.00 0.00 0.00 64 1017.2
20260507025003 16 0 0.0 3.2 0.00 0.00 0.00 65 1017.3
20260507024503 16 0 0.0 3.2 0.00 0.00 0.00 65 1017.2
20260507024004 16 0 0.0 4.8 0.00 0.00 0.00 65 1017.2
20260507023503 16 0 0.0 4.8 0.00 0.00 0.00 65 1017.1
20260507023003 16 0 0.0 8.0 0.00 0.00 0.00 65 1017.0
20260507022504 16 0 0.0 8.0 0.00 0.00 0.00 65 1017.0
20260507022003 16 34 3.2 8.0 0.00 0.00 0.00 65 1016.9
20260507021503 16 213 3.2 6.4 0.00 0.00 0.00 65 1016.9
20260507021003 16 0 0.0 4.8 0.00 0.00 0.00 64 1017.0
20260507020504 16 0 0.0 4.8 0.00 0.00 0.00 64 1017.1
20260507020004 16 0 0.0 6.4 0.00 0.00 0.00 64 1016.9
20260507015503 16 0 0.0 6.4 0.00 0.00 0.00 64 1016.8
20260507015003 16 225 1.6 3.2 0.00 0.00 0.00 65 1016.9
20260507014504 16 0 0.0 6.4 0.00 0.00 0.00 65 1016.9
20260507014003 16 0 0.0 6.4 0.00 0.00 0.00 65 1016.9
20260507013503 16 28 1.6 6.4 0.00 0.00 0.00 65 1016.8
20260507013003 16 26 3.2 6.4 0.00 0.00 0.00 65 1016.8
20260507012504 16 0 0.0 6.4 0.00 0.00 0.00 65 1016.8
20260507012003 16 234 1.6 4.8 0.00 0.00 0.00 64 1016.9
20260507011503 16 0 0.0 6.4 0.00 0.00 0.00 64 1016.8
20260507011004 16 0 0.0 6.4 0.00 0.00 0.00 64 1016.8
20260507010503 16 0 0.0 4.8 0.00 0.00 0.00 64 1016.7
20260507010003 16 0 0.0 6.4 0.00 0.00 0.00 64 1016.7
20260507005504 16 210 1.6 6.4 0.00 0.00 0.00 63 1016.7
20260507005003 16 222 3.2 6.4 0.00 0.00 0.00 64 1016.6
20260507004503 16 225 1.6 4.8 0.00 0.00 0.00 64 1016.6
20260507004003 16 225 1.6 3.2 0.00 0.00 0.00 64 1016.5
20260507003504 16 225 1.6 3.2 0.00 0.00 0.00 64 1016.4
20260507003003 16 225 1.6 3.2 0.00 0.00 0.00 65 1016.4
20260507002503 16 0 0.0 3.2 0.00 0.00 0.00 65 1016.5
20260507002004 16 0 0.0 3.2 0.00 0.00 0.00 64 1016.7
20260507001504 16 0 0.0 4.8 0.00 0.00 0.00 64 1016.5
20260507001003 16 6 1.6 4.8 0.00 0.00 0.00 64 1016.6
20260507000503 16 2 1.6 4.8 0.00 0.00 0.00 64 1016.5
20260507000004 16 242 1.6 6.4 0.00 0.00 0.00 64 1016.7
20260506235503 16 224 1.6 6.4 0.00 0.00 0.00 64 1016.7
20260506235003 17 225 3.2 6.4 0.00 0.00 0.00 64 1016.8
20260506234504 17 0 0.0 3.2 0.00 0.00 0.00 64 1016.9
20260506234004 17 0 0.0 1.6 0.00 0.00 0.00 64 1017.0
20260506233503 17 0 0.0 3.2 0.00 0.00 0.00 64 1017.0
20260506233004 17 0 0.0 3.2 0.00 0.00 0.00 64 1016.9
20260506232503 17 0 0.0 4.8 0.00 0.00 0.00 64 1016.9
20260506232003 17 0 0.0 4.8 0.00 0.00 0.00 65 1017.1
20260506231504 17 0 0.0 3.2 0.00 0.00 0.00 65 1016.9
20260506231004 17 0 0.0 3.2 0.00 0.00 0.00 65 1016.8
20260506230503 17 0 0.0 3.2 0.00 0.00 0.00 65 1016.8
20260506230003 17 0 0.0 3.2 0.00 0.00 0.00 65 1016.7
20260506225504 17 225 1.6 3.2 0.00 0.00 0.00 66 1016.8
20260506225003 17 0 0.0 3.2 0.00 0.00 0.00 66 1016.9
20260506224503 17 0 0.0 3.2 0.00 0.00 0.00 66 1016.9
20260506224003 17 0 0.0 3.2 0.00 0.00 0.00 66 1016.8
20260506223504 17 225 1.6 3.2 0.00 0.00 0.00 66 1016.9
20260506223003 17 0 0.0 3.2 0.00 0.00 0.00 66 1016.9
20260506222503 17 225 1.6 3.2 0.00 0.00 0.00 66 1016.9
20260506222003 17 0 0.0 4.8 0.00 0.00 0.00 66 1016.8
20260506221504 17 0 0.0 4.8 0.00 0.00 0.00 66 1016.9
20260506221004 17 0 0.0 4.8 0.00 0.00 0.00 66 1016.9
20260506220504 17 0 0.0 3.2 0.00 0.00 0.00 66 1016.9
20260506220004 17 0 0.0 3.2 0.00 0.00 0.00 66 1016.9
20260506215503 17 0 0.0 4.8 0.00 0.00 0.00 66 1017.0
20260506215003 17 225 3.2 4.8 0.00 0.00 0.00 66 1017.0
20260506214503 17 0 0.0 6.4 0.00 0.00 0.00 66 1017.0
20260506214004 18 0 0.0 6.4 0.00 0.00 0.00 66 1017.1
20260506213503 18 0 0.0 6.4 0.00 0.00 0.00 66 1017.1
20260506213003 18 237 1.6 4.8 0.00 0.00 0.00 66 1017.1
20260506212504 18 0 0.0 3.2 0.00 0.00 0.00 66 1017.1
20260506212003 18 0 0.0 3.2 0.00 0.00 0.00 66 1017.1
20260506211503 18 0 0.0 3.2 0.00 0.00 0.00 66 1017.1
20260506211003 18 0 0.0 3.2 0.00 0.00 0.00 66 1017.1
20260506210504 18 0 0.0 3.2 0.00 0.00 0.00 66 1017.1
20260506210004 18 0 0.0 4.8 0.00 0.00 0.00 66 1017.1
20260506205503 18 0 0.0 6.4 0.00 0.00 0.00 66 1017.2
20260506205004 18 241 3.2 6.4 0.00 0.00 0.00 66 1017.3
20260506204503 18 238 3.2 6.4 0.00 0.00 0.00 66 1017.2
20260506204003 18 242 3.2 6.4 0.00 0.00 0.00 66 1017.2
20260506203503 18 0 0.0 4.8 0.00 0.00 0.00 66 1017.1
20260506203004 18 0 0.0 3.2 0.00 0.00 0.00 66 1017.1
20260506202503 18 0 0.0 3.2 0.00 0.00 0.00 66 1017.0
20260506202003 18 0 0.0 3.2 0.00 0.00 0.00 66 1017.0
20260506201503 18 0 0.0 3.2 0.00 0.00 0.00 66 1016.9
20260506201004 18 0 0.0 3.2 0.00 0.00 0.00 66 1016.9
20260506200503 18 0 0.0 3.2 0.00 0.00 0.00 66 1016.8
20260506200003 18 0 0.0 4.8 0.00 0.00 0.00 66 1016.8
20260506195503 18 225 1.6 4.8 0.00 0.00 0.00 66 1016.9
20260506195004 18 225 1.6 3.2 0.00 0.00 0.00 66 1016.8
20260506194503 18 225 1.6 4.8 0.00 0.00 0.00 66 1016.8
20260506194003 18 0 0.0 4.8 0.00 0.00 0.00 66 1016.7
20260506193504 18 225 1.6 4.8 0.00 0.00 0.00 66 1016.6
20260506193004 18 225 1.6 3.2 0.00 0.00 0.00 65 1016.6
20260506192503 18 0 0.0 3.2 0.00 0.00 0.00 65 1016.6
20260506192003 18 0 0.0 4.8 0.00 0.00 0.00 65 1016.6
20260506191504 19 225 3.2 4.8 0.00 0.00 0.00 65 1016.6
20260506191003 19 0 0.0 3.2 0.00 0.00 0.00 65 1016.5
20260506190503 19 225 1.6 3.2 0.00 0.00 0.00 65 1016.5
20260506190003 18 0 0.0 3.2 0.00 0.00 0.00 65 1016.5
20260506185503 18 0 0.0 1.6 0.00 0.00 0.00 65 1016.6
20260506185004 18 0 0.0 1.6 0.00 0.00 0.00 65 1016.4
20260506184503 18 0 0.0 3.2 0.00 0.00 0.00 64 1016.2
20260506184003 18 0 0.0 3.2 0.00 0.00 0.00 64 1016.3
20260506183504 19 0 0.0 3.2 0.00 0.00 0.00 64 1016.2
20260506183004 19 0 0.0 3.2 0.00 0.00 0.00 64 1016.2
20260506182503 19 0 0.0 3.2 0.00 0.00 0.00 64 1016.2
20260506182003 19 0 0.0 4.8 0.00 0.00 0.00 63 1016.2
20260506181504 19 0 0.0 4.8 0.00 0.00 0.00 63 1016.1
20260506181003 19 225 3.2 4.8 0.00 0.00 0.00 63 1016.2
20260506180503 19 225 3.2 4.8 0.00 0.00 0.00 63 1016.1
20260506180003 19 225 1.6 6.4 0.00 0.00 0.00 62 1016.0
20260506175504 19 229 1.6 6.4 0.00 0.00 0.00 62 1015.9
20260506175003 19 229 3.2 6.4 0.00 0.00 0.00 62 1015.9
20260506174503 19 230 3.2 6.4 0.00 0.00 0.00 62 1015.8
20260506174004 19 0 0.0 8.0 0.00 0.00 0.00 62 1015.6
20260506173503 19 268 1.6 8.0 0.00 0.00 0.00 62 1015.6
20260506173003 20 250 4.8 8.0 0.00 0.00 0.00 62 1015.7
20260506172503 20 244 3.2 6.4 0.00 0.00 0.00 60 1015.7
20260506172004 20 244 3.2 8.0 0.00 0.00 0.00 59 1015.6
20260506171503 20 242 1.6 8.0 0.00 0.00 0.00 59 1015.4
20260506171003 20 0 0.0 6.4 0.00 0.00 0.00 58 1015.5
20260506170503 20 297 3.2 9.7 0.00 0.00 0.00 57 1015.4
20260506170004 20 271 3.2 9.7 0.00 0.00 0.00 57 1015.5
20260506165503 20 285 1.6 9.7 0.00 0.00 0.00 56 1015.5
20260506165003 21 293 4.8 9.7 0.00 0.00 0.00 55 1015.5
20260506164503 21 308 1.6 9.7 0.00 0.00 0.00 54 1015.4
20260506164003 21 275 3.2 9.7 0.00 0.00 0.00 54 1015.4
20260506163504 21 253 3.2 12.9 0.00 0.00 0.00 54 1015.5
20260506163003 21 243 4.8 12.9 0.00 0.00 0.00 53 1015.5
20260506162503 21 242 6.4 11.3 0.00 0.00 0.00 53 1015.4
20260506162003 21 246 3.2 11.3 0.00 0.00 0.00 51 1015.6
20260506161504 22 262 6.4 11.3 0.00 0.00 0.00 49 1015.4
20260506161003 22 0 0.0 11.3 0.00 0.00 0.00 49 1015.5
20260506160503 22 266 3.2 11.3 0.00 0.00 0.00 48 1015.5
20260506160004 22 290 3.2 9.7 0.00 0.00 0.00 47 1015.5
20260506155504 22 256 3.2 9.7 0.00 0.00 0.00 45 1015.4
20260506155004 23 221 1.6 8.0 0.00 0.00 0.00 43 1015.5
20260506154503 23 185 1.6 6.4 0.00 0.00 0.00 42 1015.6
20260506154003 23 0 0.0 6.4 0.00 0.00 0.00 40 1015.5
20260506153504 23 287 1.6 8.0 0.00 0.00 0.00 39 1015.7
20260506153003 24 246 3.2 8.0 0.00 0.00 0.00 38 1015.7
20260506152503 25 234 3.2 8.0 0.00 0.00 0.00 36 1015.6
20260506152003 25 252 1.6 11.3 0.00 0.00 0.00 34 1015.7
20260506151504 25 260 3.2 11.3 0.00 0.00 0.00 34 1015.6
20260506151003 26 265 6.4 11.3 0.00 0.00 0.00 33 1015.6
20260506150503 26 260 3.2 11.3 0.00 0.00 0.00 31 1015.6
20260506150004 26 246 3.2 11.3 0.00 0.00 0.00 31 1015.7
20260506145503 27 141 6.4 11.3 0.00 0.00 0.00 28 1015.6
20260506145003 26 161 1.6 8.0 0.00 0.00 0.00 28 1015.7
20260506144504 26 242 1.6 12.9 0.00 0.00 0.00 29 1015.7
20260506144003 26 280 4.8 12.9 0.00 0.00 0.00 30 1015.8
20260506143503 26 325 3.2 16.1 0.00 0.00 0.00 30 1015.8
20260506143003 26 287 3.2 16.1 0.00 0.00 0.00 31 1015.7
20260506142504 26 263 6.4 12.9 0.00 0.00 0.00 29 1015.7
20260506142004 26 257 3.2 14.5 0.00 0.00 0.00 29 1015.8
20260506141503 27 271 6.4 16.1 0.00 0.00 0.00 28 1015.7
20260506141003 27 278 3.2 16.1 0.00 0.00 0.00 27 1015.7
20260506140504 27 270 6.4 12.9 0.00 0.00 0.00 26 1015.8
20260506140004 27 257 3.2 16.1 0.00 0.00 0.00 27 1015.7
20260506135503 27 237 3.2 16.1 0.00 0.00 0.00 28 1015.9
20260506135004 27 248 4.8 12.9 0.00 0.00 0.00 26 1015.9
20260506134504 28 245 3.2 12.9 0.00 0.00 0.00 27 1015.9
20260506134003 28 238 1.6 12.9 0.00 0.00 0.00 27 1015.7
20260506133504 27 266 3.2 12.9 0.00 0.00 0.00 28 1015.9
20260506133004 28 257 6.4 12.9 0.00 0.00 0.00 27 1015.8
20260506132503 28 293 4.8 11.3 0.00 0.00 0.00 25 1015.9
20260506132003 28 284 4.8 12.9 0.00 0.00 0.00 25 1016.1
20260506131504 27 265 3.2 14.5 0.00 0.00 0.00 26 1016.1
20260506131003 28 280 6.4 14.5 0.00 0.00 0.00 24 1016.1
20260506130503 28 286 6.4 12.9 0.00 0.00 0.00 24 1016.1
20260506130003 28 271 3.2 12.9 0.00 0.00 0.00 23 1016.1
20260506125504 28 267 6.4 12.9 0.00 0.00 0.00 25 1016.2
20260506125003 28 216 1.6 12.9 0.00 0.00 0.00 22 1016.1
20260506124503 28 195 4.8 12.9 0.00 0.00 0.00 20 1016.2
20260506124004 28 241 4.8 12.9 0.00 0.00 0.00 22 1016.2
20260506123504 28 252 6.4 12.9 0.00 0.00 0.00 21 1016.3
20260506123003 28 263 3.2 12.9 0.00 0.00 0.00 20 1016.3
20260506122503 29 285 3.2 11.3 0.00 0.00 0.00 19 1016.4
20260506122004 28 197 3.2 11.3 0.00 0.00 0.00 19 1016.4
20260506121503 28 172 3.2 12.9 0.00 0.00 0.00 20 1016.5
20260506121003 28 299 6.4 12.9 0.00 0.00 0.00 20 1016.6
20260506120503 28 0 0.0 12.9 0.00 0.00 0.00 23 1016.7
20260506120004 28 211 6.4 12.9 0.00 0.00 0.00 22 1016.6
20260506115503 27 135 3.2 11.3 0.00 0.00 0.00 21 1016.7
20260506115003 27 142 6.4 11.3 0.00 0.00 0.00 21 1016.7
20260506114504 27 142 4.8 12.9 0.00 0.00 0.00 22 1016.7
20260506114003 27 140 4.8 14.5 0.00 0.00 0.00 22 1016.7
20260506113503 27 145 3.2 14.5 0.00 0.00 0.00 21 1016.8